{"data":{"norad_id":66701,"intl_designator":"2025-276AM","name":"IRIDE FM7","alt_names":[],"object_type":"PAYLOAD","status":"ACTIVE","operator":null,"country":"IT","launch_date":"2025-11-28","launch_site_code":"AFWTR","launch_vehicle":null,"mission":null,"orbit_class":"UNKNOWN","rcs_meters":null,"size_class":null,"mass_kg":null,"dimensions":null,"purposes":[],"wikipedia_slug":null,"has_3d_model":false,"image_url":null,"decayed_at":null,"tle_current":{"epoch":"2026-05-25T03:26:44.596608Z","epoch_age_seconds":56479,"freshness":"FRESH","line1":"1 66701U 25276AM  26145.14357172  .00007188  00000+0  33757-3 0  9991","line2":"2 66701  97.4221 219.1437 0005960  86.1865 274.0051 15.19909021 26923","mean_motion":15.19909021,"eccentricity":0.000596,"inclination_deg":97.4221,"raan_deg":219.1437,"arg_perigee_deg":86.1865,"mean_anomaly_deg":274.0051,"bstar":0.00033757,"rev_number":2692,"period_min":94.742512880973,"perigee_km":502.01230490356,"apogee_km":510.21833366815,"semimajor_km":6884.2523192859,"source":"CELESTRAK","updated_at":"2026-05-25T13:38:06.416504Z"}}}